Hourly Data Report for August 13, 2021

FLIN FLON
MANITOBA
Current Station Operator: ECCC - MSC

54°41'00.000" N
101°41'00.000" W
303.90 m
5050919
71954
WFO

Download Data

Hourly Data (August 2021)
Hourly Data Report for August 13, 2021
TIME
LST
Temp Definition
°C
Dew Point Definition
°C
Rel Hum Definition
%
Precip. Amount Definition
mm

Wind Dir Definition
10's deg

Wind Spd Definition
km/h
Visibility Definition
km
Stn Press Definition
kPa
Hmdx Definition


Wind Chill Definition


Weather Definition


00:00 11.5 5.3 66 0.0 29 7   97.89     LegendNANA
01:00 11.0 5.7 70 0.0 27 9   97.92     LegendNANA
02:00 11.3 5.8 69 0.0 28 9   97.95     LegendNANA
03:00 11.8 5.9 67 0.0 29 9   97.97     LegendNANA
04:00 11.5 6.7 72 0.0 30 8   97.99     LegendNANA
05:00 11.3 7.1 75 0.0 29 9   97.99     LegendNANA
06:00 10.6 7.5 82 0.0 29 10   98.02     LegendNANA
07:00 12.1 7.8 75 0.0 30 11   98.07     LegendNANA
08:00 13.9 7.9 67 0.0 29 10   98.09     LegendNANA
09:00 15.4 7.7 60 0.0 26 4   98.10     LegendNANA
10:00 17.4 7.4 52 0.0 23 7   98.06     LegendNANA
11:00 19.3 7.2 45 0.0 30 12   98.02     LegendNANA
12:00 19.7 6.7 43 0.0 28 13   98.01     LegendNANA
13:00 21.6 6.5 37 0.0 33 15   97.97     LegendNANA
14:00 22.7 5.8 34 0.0 29 12   97.89     LegendNANA
15:00 23.2 6.5 34 0.0 28 14   97.86     LegendNANA
16:00 24.0 7.1 34 0.0 28 12   97.82     LegendNANA
17:00 24.1 6.9 33 0.0 26 10   97.77     LegendNANA
18:00 23.6 7.9 37 0.0 27 11   97.74     LegendNANA
19:00 23.4 9.6 42 0.0 22 12   97.69     LegendNANA
20:00 20.2 10.2 52 0.0 20 8   97.65     LegendNANA
21:00 18.9 13.1 69 0.0 22 13   97.64     LegendNANA
22:00 19.2 11.3 60 0.0 20 11   97.57     LegendNANA
23:00 18.6 11.2 62 0.0 21 13   97.52     LegendNANA

Notes on Data Quality.

Legend

  • E = Estimated
  • M = Missing
  • NA = Not Available*
  • [empty] = Indicates an unobserved value
Date modified: